User: anonymous   Login
Location: *
(51.0333°S, 178.4667°E)
Time: 14:40:12
(UTC+00:00)
Language:

BREEZE-M DEB (TANK) - Orbit

View from above orbital plane
View from above orbital plane
View from above satellite
View from above satellite

Ground track
Ground track

The orbit data is extracted from the following two-line orbital elements,

1 35875U 09050C   20019.32545287  .00001495  00000-0  24818-3 0  9995
2 35875  49.3364  86.2464 6029025 286.5697  18.2204  4.00562896149322
Epoch (UTC): 19 January 2020 07:48:39
Eccentricity: 0.6029025
inclination: 49.3364°
perigee height: 272 km
apogee height: 20466 km
right ascension of ascending node: 86.2464°
argument of perigee: 286.5697°
revolutions per day: 4.00562896
mean anomaly at epoch: 18.2204°
orbit number at epoch: 14932

The dashed part of the orbit path shows where the satellite is in the earth's shadow,  

DLR